Vertical_Velocity
-2 -2 -2 -2 -1 -1 -1 -1 -1 -2 -1 -1 -1 -2 -2 0 2 -3 2 -3 -3 -1 -1 -2 -3 -2 -0 0 1 1 -0 -1 3 0 3 -0 3 0 -1 3 6 1 -5 -0 -1
-1 -1 -1 -1 -1 -1 -1 -1 -2 -1 -2 -1 -1 -1 -3 -5 -0 -1 -3 -2 -1 -1 -1 -0 1 -0 -3 -2 -1 1 1 5 1 1 -4 -1 1 3 5 -1 4 3 -7 -0 -4
-2 -1 -2 -2 -2 -1 -1 -0 -1 -0 -1 -3 -3 -3 -3 -3 -1 -3 -3 -3 -3 -3 -2 -1 -3 -1 -0 -2 -2 -3 1 4 8 3 1 -3 7 -2 -1 4 4 2 -3 6 -1
-2 -2 -3 -3 -2 -2 -1 -1 -2 -1 -1 -2 -3 -1 -1 -1 -3 -3 -2 -1 -2 -2 -3 -3 -3 -2 -2 0 -2 -1 3 -1 -5 -3 1 3 -3 1 0 1 -1 -2 -5 3 2
-2 -1 -1 -2 -3 -3 -2 -2 -2 -3 -2 -1 -1 -2 0 0 -2 -1 -2 -2 -2 -3 -1 -1 -3 -2 -2 -2 -3 -2 -2 -0 5 -5 -2 -1 3 -4 -2 3 -2 -2 -4 -1 2
-1 -1 -3 -2 -1 -1 -1 -2 -2 -2 -3 -1 -2 -1 -1 -2 -2 -3 -1 -1 -2 -2 -1 -4 -5 -3 -2 -3 -4 0 1 -1 -5 0 -4 -6 -3 -2 8 -5 1 -8 -6 1 2
-1 -2 -4 -2 -2 -3 -3 -4 -0 -0 0 -3 -1 1 0 -4 -1 -2 -6 -6 -5 -3 -3 -3 -4 -3 -1 -2 -2 -3 -10 0 -0 -4 -7 -7 -1 -5 4 -0 -1 0 1 -4 -5
-2 -2 -2 -2 -2 -1 -2 -2 -2 -1 0 1 1 1 1 -0 1 -2 4 -2 -3 -0 -1 -2 -3 -4 -4 -3 -4 -5 -3 -3 -7 1 4 3 -8 -1 -3 -2 -0 4 1 -0 -4
-2 -1 -2 -2 -1 -2 -2 -3 -3 -2 -3 -3 -1 -2 -6 -5 0 -2 -2 -5 -4 -1 1 -2 -3 -3 -3 -5 -7 -4 -4 -6 -16 7 0 8 -9 4 -1 -2 -3 -1 -0 -3 -2
-3 -2 -3 -1 0 -1 -4 2 -3 -0 -2 -1 -5 -1 -3 2 -3 -1 -5 0 1 -2 -4 -4 -3 -2 -2 -2 -2 -2 -5 -7 0 -15 -2 -5 -3 -12 5 4 -2 -7 -2 -1 -7
-4 -5 -3 0 -3 2 2 -7 3 -0 1 1 -1 -3 -0 -1 -2 -2 -2 0 -3 -5 -6 -3 -3 -3 -0 4 -0 6 -1 3 4 4 -1 -5 -5 8 -6 -2 -4 -1 -3 -1 -2
-3 -5 -2 0 -1 -3 -5 -1 -3 2 -2 -2 -2 -4 -2 -2 1 4 1 -5 -6 -7 -4 -3 -6 -1 -1 3 -1 1 -5 -1 -4 0 -2 5 -2 -0 -3 -2 -6 -10 -8 -8 -12
-3 -2 -4 -2 -4 8 -3 -5 0 -4 6 0 1 -1 -4 -4 -3 -6 -4 -5 -2 -5 -3 -4 -4 -1 -0 0 -10 6 -0 -4 3 2 -2 -2 3 -0 5 4 4 5 -3 -4 -6
-5 -1 -2 -2 1 -2 -1 0 0 2 2 -2 -4 -4 -0 -3 -7 -4 -0 -4 -3 -4 -2 -2 -1 -4 -2 2 0 -10 2 3 2 4 -2 -3 -7 2 -6 -4 2 -1 -4 -9 0
0 -5 -5 0 -3 -2 -1 -3 -2 -1 -4 -3 -3 -2 -1 -5 -4 2 -4 -1 -4 -3 -3 -1 -4 -7 -5 -1 2 -6 -3 8 2 3 11 -1 7 -2 -3 -10 -15 -3 2 1 2
-0 -3 -0 -6 3 -1 -1 -4 -0 -2 -5 -3 1 -0 0 -2 -1 -3 -2 -1 -5 -4 -2 -6 -3 -3 -2 -0 3 -3 -11 1 -2 0 -2 2 5 0 -14 -7 -4 0 -4 -6 -0
-4 0 -2 1 -4 -3 -1 1 -1 -3 -0 0 -2 -5 0 -4 -0 -4 -4 -6 -10 -7 -6 -0 -3 -0 -3 -4 1 0 -12 -9 -12 -8 -3 -0 -2 2 1 -3 -1 -6 -3 -2 -2
-1 -1 -2 -0 0 3 -0 -5 -0 -2 -2 -1 -1 -3 -1 -2 -2 -3 -2 -4 -4 -2 -2 -6 -10 -3 -3 1 -1 1 -1 -1 -0 -2 -2 4 -2 -2 -0 5 5 5 5 6 2
-4 -0 -5 -2 2 2 -0 -2 -4 -3 -1 -1 -0 -1 -3 -2 -2 -3 -2 -3 -3 -2 -3 -3 -5 2 -1 -1 1 -4 -6 2 0 6 3 -1 1 -3 7 5 6 -0 4 3 2
-4 -2 -3 -0 -7 -5 -4 -1 -2 -1 -0 -0 0 -2 -2 -1 -0 -2 -1 -2 -3 -2 -2 -3 -6 -3 1 -3 5 1 0 -3 -2 -4 -2 -1 2 -5 -16 -8 4 -0 -3 1 7
-2 0 3 -4 -5 -1 2 1 -1 -1 -1 -3 -0 -1 -2 -3 1 -2 -1 -0 -3 2 -2 -1 -3 4 -2 -3 -1 -3 -5 -1 1 4 2 0 -0 2 -1 -2 0 3 3 1 2
-1 -0 -4 2 2 1 -2 -2 1 1 0 -0 -1 -0 -1 1 -1 -4 -1 -1 -1 0 -0 -2 -1 -6 -2 1 -2 0 2 -0 -1 -5 -0 2 -1 -3 -1 2 1 3 2 4 8
-3 -2 -2 -0 1 -2 -1 2 -2 -0 0 -1 0 1 2 1 -2 -1 -1 -1 -0 2 1 -1 -1 -6 -1 1 -1 -1 4 5 2 3 -1 1 -6 -1 4 1 -1 2 3 2 4
-4 -1 -2 1 -2 1 -4 -0 2 -0 -0 0 -1 -2 1 2 1 -3 0 -1 -2 -1 1 -2 -1 -2 -5 1 3 -5 3 3 1 2 -2 -3 -3 4 0 -0 -2 4 -0 1 4
1 -6 3 -5 -3 -1 0 0 -2 1 1 1 0 -0 2 0 -1 -2 -2 2 0 -0 2 1 -2 -2 -0 -3 2 -1 -2 2 1 1 -0 1 -2 -3 2 -3 -0 -2 2 3 2
4 -0 -7 -7 -2 -1 -0 -2 1 2 1 -2 2 1 1 1 1 -1 1 4 1 -1 -1 1 -0 -3 -5 -2 -1 -4 1 0 0 0 -2 -1 -6 -2 -2 2 -3 5 -2 -3 3
-0 2 8 -1 -2 -1 -6 -4 -5 -7 -5 -1 -2 -2 -0 1 -2 -1 1 1 3 1 2 1 -1 -2 -4 -1 -0 -2 -2 2 0 -1 0 0 -2 -3 -6 -3 4 -5 -0 -2 -3
Height
3159 3157 3155 3153 3150 3148 3145 3143 3140 3137 3134 3131 3127 3124 3122 3121 3117 3114 3113 3111 3108 3106 3104 3102 3099 3098 3097 3097 3096 3096 3096 3095 3096 3094 3096 3094 3093 3091 3092 3096 3098 3100 3099 3098 3101
3159 3157 3155 3152 3150 3147 3144 3141 3138 3135 3132 3128 3125 3122 3119 3117 3116 3112 3110 3107 3105 3103 3101 3099 3098 3095 3094 3092 3091 3092 3091 3092 3090 3088 3086 3088 3088 3087 3088 3088 3092 3096 3093 3090 3091
3159 3157 3154 3151 3148 3145 3142 3139 3136 3133 3129 3126 3123 3120 3117 3115 3113 3110 3108 3106 3103 3100 3097 3095 3093 3092 3090 3089 3087 3087 3088 3088 3087 3083 3080 3082 3084 3082 3082 3084 3088 3088 3090 3091 3088
3158 3155 3153 3150 3147 3144 3141 3137 3134 3130 3127 3123 3121 3118 3115 3113 3114 3109 3107 3104 3101 3099 3096 3093 3091 3089 3087 3086 3083 3085 3084 3081 3079 3079 3077 3077 3076 3075 3076 3076 3080 3081 3080 3081 3080
3157 3154 3152 3148 3145 3142 3139 3135 3132 3128 3125 3121 3118 3115 3114 3113 3111 3108 3105 3102 3100 3097 3094 3090 3087 3085 3084 3082 3081 3080 3078 3078 3076 3074 3074 3071 3070 3068 3067 3072 3069 3069 3070 3071 3073
3157 3153 3150 3147 3143 3139 3136 3132 3129 3126 3123 3119 3116 3113 3112 3111 3108 3105 3103 3101 3098 3094 3090 3087 3084 3081 3079 3079 3078 3077 3075 3073 3071 3070 3068 3066 3064 3063 3064 3064 3061 3060 3061 3063 3065
3156 3152 3148 3145 3140 3136 3133 3130 3126 3123 3121 3118 3115 3112 3111 3110 3106 3104 3100 3097 3094 3092 3088 3084 3081 3080 3077 3075 3074 3073 3071 3071 3069 3067 3064 3062 3057 3059 3058 3058 3056 3055 3054 3054 3056
3154 3150 3146 3142 3137 3134 3130 3128 3124 3121 3119 3116 3114 3112 3112 3109 3105 3102 3101 3096 3092 3088 3085 3081 3078 3077 3075 3075 3074 3071 3070 3067 3067 3064 3063 3060 3045 3053 3053 3051 3050 3050 3050 3049 3049
3151 3148 3144 3140 3135 3131 3128 3125 3123 3120 3118 3115 3115 3112 3110 3108 3106 3102 3098 3093 3090 3087 3084 3080 3078 3075 3074 3072 3071 3071 3068 3065 3060 3062 3058 3057 3045 3049 3048 3046 3044 3043 3042 3041 3041
3149 3145 3142 3138 3134 3130 3127 3125 3121 3119 3116 3115 3114 3114 3112 3108 3104 3100 3094 3091 3088 3083 3079 3077 3076 3075 3074 3073 3072 3068 3067 3063 3059 3056 3053 3050 3044 3043 3042 3041 3037 3033 3032 3032 3032
3148 3144 3140 3136 3132 3129 3126 3124 3124 3119 3116 3114 3114 3112 3109 3106 3102 3098 3094 3092 3087 3083 3080 3078 3077 3076 3075 3073 3072 3068 3064 3059 3056 3054 3049 3047 3041 3038 3032 3031 3029 3028 3026 3024 3023
3146 3142 3138 3135 3132 3128 3125 3122 3120 3119 3114 3113 3112 3110 3107 3105 3104 3100 3095 3092 3086 3082 3080 3079 3076 3076 3075 3072 3068 3065 3060 3054 3051 3050 3047 3041 3037 3032 3032 3030 3027 3022 3019 3016 3015
3144 3140 3137 3134 3131 3129 3124 3121 3117 3114 3113 3111 3109 3107 3105 3103 3099 3095 3092 3086 3083 3081 3077 3076 3077 3075 3073 3070 3064 3060 3056 3051 3048 3044 3042 3037 3033 3031 3030 3029 3024 3017 3009 3005 3003
3141 3137 3135 3133 3132 3126 3123 3119 3115 3112 3111 3113 3109 3106 3105 3100 3098 3094 3090 3088 3083 3081 3078 3077 3076 3074 3072 3069 3063 3055 3053 3048 3043 3043 3039 3038 3033 3029 3026 3023 3015 3006 2999 2993 2989
3139 3135 3132 3130 3129 3126 3123 3119 3115 3113 3113 3114 3109 3106 3103 3102 3101 3097 3090 3087 3083 3081 3081 3079 3075 3073 3070 3066 3063 3056 3048 3042 3037 3036 3037 3036 3035 3028 3025 3012 3006 2999 2993 2987 2984
3137 3133 3130 3127 3125 3123 3121 3117 3116 3116 3112 3112 3110 3106 3103 3098 3096 3095 3091 3087 3083 3082 3079 3076 3074 3072 3069 3066 3062 3057 3046 3039 3036 3035 3036 3035 3035 3030 3024 3016 3006 3000 2992 2984 2982
3135 3131 3127 3124 3123 3120 3119 3117 3115 3113 3116 3113 3108 3105 3102 3099 3096 3091 3087 3082 3080 3078 3076 3075 3073 3072 3069 3064 3061 3055 3047 3043 3043 3040 3041 3036 3035 3034 3030 3021 3012 3001 2991 2983 2980
3133 3130 3126 3123 3120 3119 3117 3116 3116 3114 3112 3110 3106 3103 3102 3099 3096 3093 3090 3087 3084 3081 3078 3075 3073 3073 3070 3068 3062 3058 3056 3056 3059 3052 3041 3038 3038 3035 3031 3023 3015 3005 2995 2986 2982
3131 3128 3125 3123 3120 3117 3116 3114 3115 3114 3112 3109 3105 3101 3100 3099 3097 3092 3088 3085 3084 3083 3081 3077 3074 3073 3070 3068 3066 3060 3057 3056 3053 3046 3043 3041 3040 3035 3031 3023 3016 3007 2998 2989 2985
3130 3127 3125 3122 3120 3117 3116 3114 3112 3111 3109 3107 3105 3102 3100 3098 3095 3092 3089 3087 3085 3082 3081 3078 3074 3072 3070 3068 3068 3063 3061 3057 3055 3056 3051 3041 3041 3040 3028 3022 3017 3010 3003 2996 2991
3127 3125 3123 3120 3119 3118 3115 3112 3110 3109 3107 3106 3103 3100 3098 3096 3093 3092 3091 3088 3085 3083 3080 3077 3076 3073 3069 3067 3065 3064 3059 3059 3057 3056 3053 3047 3044 3041 3035 3028 3021 3015 3008 3002 2998
3124 3123 3121 3119 3118 3114 3113 3113 3111 3107 3105 3103 3101 3098 3096 3093 3089 3090 3090 3087 3085 3082 3078 3077 3073 3069 3068 3066 3065 3064 3062 3060 3060 3058 3054 3051 3047 3042 3037 3031 3026 3020 3014 3008 3004
3122 3120 3118 3117 3115 3114 3113 3110 3108 3107 3103 3101 3100 3097 3094 3092 3091 3088 3087 3085 3084 3082 3078 3076 3072 3070 3066 3068 3064 3063 3061 3061 3059 3057 3055 3053 3049 3044 3040 3035 3030 3025 3019 3014 3010
3120 3118 3115 3113 3112 3110 3108 3108 3105 3103 3101 3099 3097 3095 3093 3090 3088 3087 3086 3082 3080 3079 3076 3074 3072 3072 3071 3067 3064 3059 3058 3058 3056 3056 3054 3051 3048 3044 3041 3037 3033 3028 3024 3020 3016
3116 3114 3112 3111 3108 3108 3105 3104 3103 3101 3099 3097 3094 3092 3091 3089 3085 3083 3083 3082 3078 3076 3075 3072 3069 3067 3065 3061 3059 3057 3055 3054 3053 3053 3052 3049 3045 3044 3041 3039 3036 3032 3028 3025 3022
3110 3108 3106 3105 3104 3103 3101 3100 3099 3098 3096 3094 3092 3089 3087 3086 3085 3082 3080 3079 3076 3073 3072 3069 3066 3063 3060 3058 3056 3053 3052 3051 3050 3050 3048 3047 3046 3044 3042 3040 3038 3036 3033 3029 3026
3105 3103 3100 3100 3098 3096 3096 3094 3092 3091 3092 3090 3089 3086 3085 3082 3080 3079 3077 3074 3072 3069 3068 3066 3064 3062 3057 3056 3053 3052 3051 3050 3048 3047 3046 3046 3045 3044 3042 3040 3039 3037 3035 3033 3030